This demonstration page uses our WeatherBlox Daily Observations layout. Learn more.

Left ArrowRight Arrow

34.16533, -84.80231

Hourly Observations for December 15, 2017

Temp ( °F °C ) Dew Point ( °F °C ) Humidity (%) Winds ( mph kmh ) Pressure ( in mb ) Visibility ( mi km ) Precip ( " mm )
12:53 am 00:53 Clear 39 3.9 35 1.7 86 86 Calm 30.01 1016 10 16 0.00 0.00
1:53 am 01:53 Clear 40 4.4 32 0 73 73 NNW 3 6 30.00 1016 10 16 0.00 0.00
2:53 am 02:53 Clear 39 3.9 30 -1.1 70 70 NNW 3 6 30.00 1016 10 16 0.00 0.00
3:53 am 03:53 Clear 37 2.8 31 -0.6 79 79 VRB 3 6 30.02 1017 10 16 0.00 0.00
4:53 am 04:53 Clear 35 1.7 29 -1.7 78 78 Calm 30.03 1017 10 16 0.00 0.00
5:53 am 05:53 Clear 33 0.6 29 -1.7 85 85 Calm 30.03 1017 10 16 0.00 0.00
6:53 am 06:53 Clear 31 -0.6 29 -1.7 92 92 Calm 30.06 1018 10 16 0.00 0.00
7:53 am 07:53 Sunny 32 0 29 -1.7 88 88 Calm 30.06 1018 9 14 0.00 0.00
8:53 am 08:53 Sunny 34 1.1 29 -1.7 82 82 Calm 30.09 1019 9 14 0.00 0.00
9:53 am 09:53 Sunny 35 1.7 27 -2.8 72 72 VRB 5 7 30.10 1019 10 16 0.00 0.00
10:53 am 10:53 Sunny 36 2.2 26 -3.3 67 67 VRB 3 6 30.13 1020 10 16 0.00 0.00
11:53 am 11:53 Mostly Sunny 37 2.8 25 -3.9 62 62 VRB 5 7 30.15 1021 10 16 0.00 0.00
12:53 pm 12:53 Sunny 37 2.8 24 -4.4 59 59 NNW 8 13 30.15 1021 10 16 0.00 0.00
1:53 pm 13:53 Sunny 37 2.8 24 -4.4 59 59 NNW 7 11 30.12 1020 10 16 0.00 0.00
2:53 pm 14:53 Sunny 38 3.3 25 -3.9 60 60 Calm 30.12 1020 10 16 0.00 0.00
3:53 pm 15:53 Sunny 37 2.8 24 -4.4 59 59 VRB 3 6 30.14 1021 10 16 0.00 0.00
4:53 pm 16:53 Sunny 36 2.2 24 -4.4 62 62 VRB 3 6 30.15 1021 10 16 0.00 0.00
5:53 pm 17:53 Clear 34 1.1 24 -4.4 67 67 Calm 30.17 1022 10 16 0.00 0.00
6:53 pm 18:53 Clear 31 -0.6 24 -4.4 76 76 Calm 30.20 1023 10 16 0.00 0.00
7:53 pm 19:53 Clear 29 -1.7 24 -4.4 82 82 Calm 30.21 1023 10 16 0.00 0.00
8:53 pm 20:53 Clear 28 -2.2 24 -4.4 85 85 Calm 30.21 1023 10 16 0.00 0.00
9:53 pm 21:53 Clear 27 -2.8 25 -3.9 92 92 Calm 30.23 1024 9 14 0.00 0.00
10:53 pm 22:53 Clear 26 -3.3 24 -4.4 92 92 Calm 30.24 1024 9 14 0.00 0.00
11:53 pm 23:53 Clear 26 -3.3 24 -4.4 92 92 Calm 30.25 1024 9 14 0.00 0.00

Powered by AerisWeather